owner,sensor,date,latitude,longitude,air_temperature,qcFlag 
TCOON,ioos:station:TCOON:009:1,2012-01-01T00:00:00Z,27.8398,-97.0727,18.1,1111122 
TCOON,ioos:station:TCOON:009:1,2012-01-01T01:00:00Z,27.8398,-97.0727,18.8,1111122 
TCOON,ioos:station:TCOON:009:1,2012-01-01T02:00:00Z,27.8398,-97.0727,19.0,1111122 
TCOON,ioos:station:TCOON:009:1,2012-01-01T03:00:00Z,27.8398,-97.0727,19.1,1111122 
TCOON,ioos:station:TCOON:009:1,2012-01-01T04:00:00Z,27.8398,-97.0727,19.3,1111122 
TCOON,ioos:station:TCOON:009:1,2012-01-01T05:00:00Z,27.8398,-97.0727,19.0,1111122 
TCOON,ioos:station:TCOON:009:1,2012-01-01T06:00:00Z,27.8398,-97.0727,19.1,1111122 
TCOON,ioos:station:TCOON:009:1,2012-01-01T07:00:00Z,27.8398,-97.0727,19.1,1111122 
TCOON,ioos:station:TCOON:009:1,2012-01-01T08:00:00Z,27.8398,-97.0727,19.5,1111122 
TCOON,ioos:station:TCOON:009:1,2012-01-01T09:00:00Z,27.8398,-97.0727,19.2,1111122 
TCOON,ioos:station:TCOON:009:1,2012-01-01T10:00:00Z,27.8398,-97.0727,18.8,1111122 
TCOON,ioos:station:TCOON:009:1,2012-01-01T11:00:00Z,27.8398,-97.0727,19.0,1111122 
TCOON,ioos:station:TCOON:009:1,2012-01-01T12:00:00Z,27.8398,-97.0727,19.5,1111122 
TCOON,ioos:station:TCOON:009:1,2012-01-01T13:00:00Z,27.8398,-97.0727,17.1,1111122 
TCOON,ioos:station:TCOON:009:1,2012-01-01T14:00:00Z,27.8398,-97.0727,15.9,1111122 
TCOON,ioos:station:TCOON:009:1,2012-01-01T15:00:00Z,27.8398,-97.0727,15.7,1111122 
TCOON,ioos:station:TCOON:009:1,2012-01-01T16:00:00Z,27.8398,-97.0727,15.3,1111122 
TCOON,ioos:station:TCOON:009:1,2012-01-01T17:00:00Z,27.8398,-97.0727,15.8,1111122 
TCOON,ioos:station:TCOON:009:1,2012-01-01T18:00:00Z,27.8398,-97.0727,17.2,1111122 
TCOON,ioos:station:TCOON:009:1,2012-01-01T19:00:00Z,27.8398,-97.0727,17.6,1111122 
TCOON,ioos:station:TCOON:009:1,2012-01-01T20:00:00Z,27.8398,-97.0727,18.3,1111122 
TCOON,ioos:station:TCOON:009:1,2012-01-01T21:00:00Z,27.8398,-97.0727,19.2,1111122 
TCOON,ioos:station:TCOON:009:1,2012-01-01T22:00:00Z,27.8398,-97.0727,19.8,1111122 
TCOON,ioos:station:TCOON:009:1,2012-01-01T23:00:00Z,27.8398,-97.0727,19.1,1111122 
TCOON,ioos:station:TCOON:009:1,2012-01-02T00:00:00Z,27.8398,-97.0727,17.5,1111122 
TCOON,ioos:station:TCOON:009:1,2012-01-02T01:00:00Z,27.8398,-97.0727,16.4,1111122 
TCOON,ioos:station:TCOON:009:1,2012-01-02T02:00:00Z,27.8398,-97.0727,15.4,1111122 
TCOON,ioos:station:TCOON:009:1,2012-01-02T03:00:00Z,27.8398,-97.0727,14.3,1111122 
TCOON,ioos:station:TCOON:009:1,2012-01-02T04:00:00Z,27.8398,-97.0727,14.0,1111122 
TCOON,ioos:station:TCOON:009:1,2012-01-02T05:00:00Z,27.8398,-97.0727,13.2,1111122 
TCOON,ioos:station:TCOON:009:1,2012-01-02T06:00:00Z,27.8398,-97.0727,13.0,11111222 
TCOON,ioos:station:TCOON:009:1,2012-01-02T09:00:00Z,27.8398,-97.0727,11.6,11111222 
TCOON,ioos:station:TCOON:009:1,2012-01-02T10:00:00Z,27.8398,-97.0727,11.1,1111122 
TCOON,ioos:station:TCOON:009:1,2012-01-02T11:00:00Z,27.8398,-97.0727,10.6,1111122 
TCOON,ioos:station:TCOON:009:1,2012-01-02T12:00:00Z,27.8398,-97.0727,10.1,1111122 
TCOON,ioos:station:TCOON:009:1,2012-01-02T13:00:00Z,27.8398,-97.0727,9.6,1111122 
TCOON,ioos:station:TCOON:009:1,2012-01-02T14:00:00Z,27.8398,-97.0727,9.4,1111122 
TCOON,ioos:station:TCOON:009:1,2012-01-02T15:00:00Z,27.8398,-97.0727,9.8,1111122 
TCOON,ioos:station:TCOON:009:1,2012-01-02T16:00:00Z,27.8398,-97.0727,11.0,1111122 
TCOON,ioos:station:TCOON:009:1,2012-01-02T17:00:00Z,27.8398,-97.0727,12.7,1111122 
TCOON,ioos:station:TCOON:009:1,2012-01-02T18:00:00Z,27.8398,-97.0727,13.4,1111122 
TCOON,ioos:station:TCOON:009:1,2012-01-02T19:00:00Z,27.8398,-97.0727,13.7,1111122 
TCOON,ioos:station:TCOON:009:1,2012-01-02T20:00:00Z,27.8398,-97.0727,14.1,1111122 
TCOON,ioos:station:TCOON:009:1,2012-01-02T21:00:00Z,27.8398,-97.0727,14.9,1111122 
TCOON,ioos:station:TCOON:009:1,2012-01-02T22:00:00Z,27.8398,-97.0727,15.9,1111122 
TCOON,ioos:station:TCOON:009:1,2012-01-02T23:00:00Z,27.8398,-97.0727,15.4,1111122 
TCOON,ioos:station:TCOON:009:1,2012-01-03T00:00:00Z,27.8398,-97.0727,13.6,1111122 
TCOON,ioos:station:TCOON:009:1,2012-01-03T01:00:00Z,27.8398,-97.0727,11.6,1111122 
TCOON,ioos:station:TCOON:009:1,2012-01-03T02:00:00Z,27.8398,-97.0727,12.2,1111122 
TCOON,ioos:station:TCOON:009:1,2012-01-03T03:00:00Z,27.8398,-97.0727,12.8,1111122 
TCOON,ioos:station:TCOON:009:1,2012-01-03T04:00:00Z,27.8398,-97.0727,12.5,1111122 
TCOON,ioos:station:TCOON:009:1,2012-01-03T05:00:00Z,27.8398,-97.0727,11.2,1111122 
TCOON,ioos:station:TCOON:009:1,2012-01-03T06:00:00Z,27.8398,-97.0727,10.3,1111122 
TCOON,ioos:station:TCOON:009:1,2012-01-03T07:00:00Z,27.8398,-97.0727,10.0,1111122 
TCOON,ioos:station:TCOON:009:1,2012-01-03T08:00:00Z,27.8398,-97.0727,10.5,1111122 
TCOON,ioos:station:TCOON:009:1,2012-01-03T09:00:00Z,27.8398,-97.0727,9.2,1111122 
TCOON,ioos:station:TCOON:009:1,2012-01-03T10:00:00Z,27.8398,-97.0727,10.2,1111122 
TCOON,ioos:station:TCOON:009:1,2012-01-03T11:00:00Z,27.8398,-97.0727,9.9,1111122 
TCOON,ioos:station:TCOON:009:1,2012-01-03T12:00:00Z,27.8398,-97.0727,9.8,1111122 
TCOON,ioos:station:TCOON:009:1,2012-01-03T13:00:00Z,27.8398,-97.0727,9.1,1111122 
TCOON,ioos:station:TCOON:009:1,2012-01-03T14:00:00Z,27.8398,-97.0727,10.9,1111122 
TCOON,ioos:station:TCOON:009:1,2012-01-03T15:00:00Z,27.8398,-97.0727,12.5,1111122 
TCOON,ioos:station:TCOON:009:1,2012-01-03T16:00:00Z,27.8398,-97.0727,12.5,1111122 
TCOON,ioos:station:TCOON:009:1,2012-01-03T17:00:00Z,27.8398,-97.0727,12.5,1111122 
TCOON,ioos:station:TCOON:009:1,2012-01-03T18:00:00Z,27.8398,-97.0727,12.9,1111122 
TCOON,ioos:station:TCOON:009:1,2012-01-03T19:00:00Z,27.8398,-97.0727,13.5,1111122 
TCOON,ioos:station:TCOON:009:1,2012-01-03T20:00:00Z,27.8398,-97.0727,14.2,1111122 
TCOON,ioos:station:TCOON:009:1,2012-01-03T21:00:00Z,27.8398,-97.0727,14.7,1111122 
TCOON,ioos:station:TCOON:009:1,2012-01-03T22:00:00Z,27.8398,-97.0727,15.2,1111122 
TCOON,ioos:station:TCOON:009:1,2012-01-03T23:00:00Z,27.8398,-97.0727,15.5,1111122 
TCOON,ioos:station:TCOON:009:1,2012-01-04T00:00:00Z,27.8398,-97.0727,14.9,1111122 
TCOON,ioos:station:TCOON:009:1,2012-01-04T01:00:00Z,27.8398,-97.0727,14.8,1111122 
TCOON,ioos:station:TCOON:009:1,2012-01-04T02:00:00Z,27.8398,-97.0727,15.2,1111122 
TCOON,ioos:station:TCOON:009:1,2012-01-04T03:00:00Z,27.8398,-97.0727,15.2,1111122 
TCOON,ioos:station:TCOON:009:1,2012-01-04T04:00:00Z,27.8398,-97.0727,15.3,1111122 
TCOON,ioos:station:TCOON:009:1,2012-01-04T05:00:00Z,27.8398,-97.0727,16.0,1111122 
TCOON,ioos:station:TCOON:009:1,2012-01-04T06:00:00Z,27.8398,-97.0727,15.9,1111122 
TCOON,ioos:station:TCOON:009:1,2012-01-04T07:00:00Z,27.8398,-97.0727,15.0,1111122 
TCOON,ioos:station:TCOON:009:1,2012-01-04T08:00:00Z,27.8398,-97.0727,15.0,1111122 
TCOON,ioos:station:TCOON:009:1,2012-01-04T09:00:00Z,27.8398,-97.0727,13.8,1111122 
TCOON,ioos:station:TCOON:009:1,2012-01-04T10:00:00Z,27.8398,-97.0727,13.5,1111122 
TCOON,ioos:station:TCOON:009:1,2012-01-04T11:00:00Z,27.8398,-97.0727,13.4,1111122 
TCOON,ioos:station:TCOON:009:1,2012-01-04T12:00:00Z,27.8398,-97.0727,14.2,1111122 
TCOON,ioos:station:TCOON:009:1,2012-01-04T13:00:00Z,27.8398,-97.0727,14.5,1111122 
TCOON,ioos:station:TCOON:009:1,2012-01-04T14:00:00Z,27.8398,-97.0727,15.5,1111122 
TCOON,ioos:station:TCOON:009:1,2012-01-04T15:00:00Z,27.8398,-97.0727,17.3,1111122 
TCOON,ioos:station:TCOON:009:1,2012-01-04T16:00:00Z,27.8398,-97.0727,18.9,1111122 
TCOON,ioos:station:TCOON:009:1,2012-01-04T17:00:00Z,27.8398,-97.0727,19.4,1111122 
TCOON,ioos:station:TCOON:009:1,2012-01-04T18:00:00Z,27.8398,-97.0727,19.6,1111122 
TCOON,ioos:station:TCOON:009:1,2012-01-04T19:00:00Z,27.8398,-97.0727,19.5,1111122 
TCOON,ioos:station:TCOON:009:1,2012-01-06T13:00:00Z,27.8398,-97.0727,15.5,1111122 
TCOON,ioos:station:TCOON:009:1,2012-01-06T14:00:00Z,27.8398,-97.0727,15.7,1111122 
TCOON,ioos:station:TCOON:009:1,2012-01-06T15:00:00Z,27.8398,-97.0727,16.7,1111122 
TCOON,ioos:station:TCOON:009:1,2012-01-06T16:00:00Z,27.8398,-97.0727,17.7,1111122 
TCOON,ioos:station:TCOON:009:1,2012-01-06T17:00:00Z,27.8398,-97.0727,18.8,1111122 
TCOON,ioos:station:TCOON:009:1,2012-01-06T18:00:00Z,27.8398,-97.0727,19.2,1111122 
TCOON,ioos:station:TCOON:009:1,2012-01-06T19:00:00Z,27.8398,-97.0727,19.9,1111122 
TCOON,ioos:station:TCOON:009:1,2012-01-06T20:00:00Z,27.8398,-97.0727,20.0,1111122 
TCOON,ioos:station:TCOON:009:1,2012-01-06T21:00:00Z,27.8398,-97.0727,20.0,1111122 
TCOON,ioos:station:TCOON:009:1,2012-01-06T22:00:00Z,27.8398,-97.0727,19.6,1111122 
TCOON,ioos:station:TCOON:009:1,2012-01-06T23:00:00Z,27.8398,-97.0727,19.0,1111122 
TCOON,ioos:station:TCOON:009:1,2012-01-07T00:00:00Z,27.8398,-97.0727,18.4,1111122 
TCOON,ioos:station:TCOON:009:1,2012-01-07T01:00:00Z,27.8398,-97.0727,18.7,1111122 
TCOON,ioos:station:TCOON:009:1,2012-01-07T02:00:00Z,27.8398,-97.0727,18.3,1111122 
TCOON,ioos:station:TCOON:009:1,2012-01-07T03:00:00Z,27.8398,-97.0727,18.3,1111122 
TCOON,ioos:station:TCOON:009:1,2012-01-07T04:00:00Z,27.8398,-97.0727,18.2,1111122 
TCOON,ioos:station:TCOON:009:1,2012-01-07T05:00:00Z,27.8398,-97.0727,17.8,1111122 
TCOON,ioos:station:TCOON:009:1,2012-01-07T06:00:00Z,27.8398,-97.0727,17.6,1111122 
TCOON,ioos:station:TCOON:009:1,2012-01-07T07:00:00Z,27.8398,-97.0727,17.6,1111122 
TCOON,ioos:station:TCOON:009:1,2012-01-07T08:00:00Z,27.8398,-97.0727,17.2,1111122 
TCOON,ioos:station:TCOON:009:1,2012-01-07T09:00:00Z,27.8398,-97.0727,16.8,1111122 
TCOON,ioos:station:TCOON:009:1,2012-01-07T10:00:00Z,27.8398,-97.0727,16.8,1111122 
TCOON,ioos:station:TCOON:009:1,2012-01-07T11:00:00Z,27.8398,-97.0727,16.9,1111122 
TCOON,ioos:station:TCOON:009:1,2012-01-07T12:00:00Z,27.8398,-97.0727,16.3,1111122 
TCOON,ioos:station:TCOON:009:1,2012-01-07T13:00:00Z,27.8398,-97.0727,16.3,1111122 
TCOON,ioos:station:TCOON:009:1,2012-01-07T14:00:00Z,27.8398,-97.0727,16.9,1111122 
TCOON,ioos:station:TCOON:009:1,2012-01-07T15:00:00Z,27.8398,-97.0727,18.6,1111122 
TCOON,ioos:station:TCOON:009:1,2012-01-07T16:00:00Z,27.8398,-97.0727,19.9,1111122 
TCOON,ioos:station:TCOON:009:1,2012-01-07T17:00:00Z,27.8398,-97.0727,20.3,1111122 
TCOON,ioos:station:TCOON:009:1,2012-01-07T18:00:00Z,27.8398,-97.0727,21.5,1111122 
TCOON,ioos:station:TCOON:009:1,2012-01-07T19:00:00Z,27.8398,-97.0727,20.8,1111122 
TCOON,ioos:station:TCOON:009:1,2012-01-07T20:00:00Z,27.8398,-97.0727,21.4,1111122 
TCOON,ioos:station:TCOON:009:1,2012-01-07T21:00:00Z,27.8398,-97.0727,21.2,1111122 
TCOON,ioos:station:TCOON:009:1,2012-01-07T22:00:00Z,27.8398,-97.0727,20.4,1111122 
TCOON,ioos:station:TCOON:009:1,2012-01-07T23:00:00Z,27.8398,-97.0727,19.4,1111122 
TCOON,ioos:station:TCOON:009:1,2012-01-08T00:00:00Z,27.8398,-97.0727,18.6,1111122 
TCOON,ioos:station:TCOON:009:1,2012-01-08T01:00:00Z,27.8398,-97.0727,18.6,1111122 
TCOON,ioos:station:TCOON:009:1,2012-01-08T02:00:00Z,27.8398,-97.0727,18.5,1111122 
TCOON,ioos:station:TCOON:009:1,2012-01-08T03:00:00Z,27.8398,-97.0727,18.6,1111122 
TCOON,ioos:station:TCOON:009:1,2012-01-08T04:00:00Z,27.8398,-97.0727,18.5,1111122 
TCOON,ioos:station:TCOON:009:1,2012-01-08T05:00:00Z,27.8398,-97.0727,18.3,1111122 
TCOON,ioos:station:TCOON:009:1,2012-01-08T06:00:00Z,27.8398,-97.0727,18.0,1111122 
TCOON,ioos:station:TCOON:009:1,2012-01-08T07:00:00Z,27.8398,-97.0727,17.6,1111122 
TCOON,ioos:station:TCOON:009:1,2012-01-08T08:00:00Z,27.8398,-97.0727,17.3,1111122 
TCOON,ioos:station:TCOON:009:1,2012-01-08T09:00:00Z,27.8398,-97.0727,17.4,1111122 
TCOON,ioos:station:TCOON:009:1,2012-01-08T10:00:00Z,27.8398,-97.0727,17.3,1111122 
TCOON,ioos:station:TCOON:009:1,2012-01-08T11:00:00Z,27.8398,-97.0727,17.5,1111122 
TCOON,ioos:station:TCOON:009:1,2012-01-08T12:00:00Z,27.8398,-97.0727,17.2,1111122 
TCOON,ioos:station:TCOON:009:1,2012-01-08T13:00:00Z,27.8398,-97.0727,17.7,1111122 
TCOON,ioos:station:TCOON:009:1,2012-01-08T14:00:00Z,27.8398,-97.0727,17.7,1111122 
TCOON,ioos:station:TCOON:009:1,2012-01-08T15:00:00Z,27.8398,-97.0727,19.6,1111122 
TCOON,ioos:station:TCOON:009:1,2012-01-08T16:00:00Z,27.8398,-97.0727,21.0,1111122 
TCOON,ioos:station:TCOON:009:1,2012-01-08T17:00:00Z,27.8398,-97.0727,21.2,1111122 
TCOON,ioos:station:TCOON:009:1,2012-01-08T18:00:00Z,27.8398,-97.0727,22.4,1111122 
TCOON,ioos:station:TCOON:009:1,2012-01-08T19:00:00Z,27.8398,-97.0727,22.2,1111122 
TCOON,ioos:station:TCOON:009:1,2012-01-08T20:00:00Z,27.8398,-97.0727,22.0,1111122 
TCOON,ioos:station:TCOON:009:1,2012-01-08T21:00:00Z,27.8398,-97.0727,22.2,1111122 
TCOON,ioos:station:TCOON:009:1,2012-01-08T22:00:00Z,27.8398,-97.0727,21.2,1111122 
TCOON,ioos:station:TCOON:009:1,2012-01-08T23:00:00Z,27.8398,-97.0727,20.4,1111122 
TCOON,ioos:station:TCOON:009:1,2012-01-09T00:00:00Z,27.8398,-97.0727,20.5,1111122 
TCOON,ioos:station:TCOON:009:1,2012-01-09T01:00:00Z,27.8398,-97.0727,20.2,1111122 
TCOON,ioos:station:TCOON:009:1,2012-01-09T02:00:00Z,27.8398,-97.0727,19.7,1111122 
TCOON,ioos:station:TCOON:009:1,2012-01-09T03:00:00Z,27.8398,-97.0727,20.1,1111122 
TCOON,ioos:station:TCOON:009:1,2012-01-09T04:00:00Z,27.8398,-97.0727,19.0,1111122 
TCOON,ioos:station:TCOON:009:1,2012-01-09T05:00:00Z,27.8398,-97.0727,19.1,1111122 
TCOON,ioos:station:TCOON:009:1,2012-01-09T06:00:00Z,27.8398,-97.0727,20.7,1111122 
TCOON,ioos:station:TCOON:009:1,2012-01-09T07:00:00Z,27.8398,-97.0727,19.7,1111122 
TCOON,ioos:station:TCOON:009:1,2012-01-09T08:00:00Z,27.8398,-97.0727,20.2,1111122 
TCOON,ioos:station:TCOON:009:1,2012-01-09T09:00:00Z,27.8398,-97.0727,20.4,11111222 
TCOON,ioos:station:TCOON:009:1,2012-01-09T10:00:00Z,27.8398,-97.0727,20.5,11111222 
TCOON,ioos:station:TCOON:009:1,2012-01-09T11:00:00Z,27.8398,-97.0727,19.9,11111222 
TCOON,ioos:station:TCOON:009:1,2012-01-09T12:00:00Z,27.8398,-97.0727,20.0,11111222 
TCOON,ioos:station:TCOON:009:1,2012-01-09T13:00:00Z,27.8398,-97.0727,19.7,11111222 
TCOON,ioos:station:TCOON:009:1,2012-01-09T14:00:00Z,27.8398,-97.0727,19.6,11111222 
TCOON,ioos:station:TCOON:009:1,2012-01-09T15:00:00Z,27.8398,-97.0727,19.8,1111122 
TCOON,ioos:station:TCOON:009:1,2012-01-09T16:00:00Z,27.8398,-97.0727,20.0,1111122 
TCOON,ioos:station:TCOON:009:1,2012-01-09T17:00:00Z,27.8398,-97.0727,20.8,1111122 
TCOON,ioos:station:TCOON:009:1,2012-01-09T18:00:00Z,27.8398,-97.0727,22.6,1111122 
TCOON,ioos:station:TCOON:009:1,2012-01-09T19:00:00Z,27.8398,-97.0727,22.1,1111122 
TCOON,ioos:station:TCOON:009:1,2012-01-09T20:00:00Z,27.8398,-97.0727,21.8,1111122 
TCOON,ioos:station:TCOON:009:1,2012-01-09T21:00:00Z,27.8398,-97.0727,17.4,1111122 
TCOON,ioos:station:TCOON:009:1,2012-01-09T22:00:00Z,27.8398,-97.0727,15.5,1111122 
TCOON,ioos:station:TCOON:009:1,2012-01-09T23:00:00Z,27.8398,-97.0727,15.2,1111122 
TCOON,ioos:station:TCOON:009:1,2012-01-10T00:00:00Z,27.8398,-97.0727,14.6,1111122 
TCOON,ioos:station:TCOON:009:1,2012-01-10T01:00:00Z,27.8398,-97.0727,14.0,1111122 
TCOON,ioos:station:TCOON:009:1,2012-01-10T02:00:00Z,27.8398,-97.0727,13.5,1111122 
TCOON,ioos:station:TCOON:009:1,2012-01-10T03:00:00Z,27.8398,-97.0727,13.1,1111122 
TCOON,ioos:station:TCOON:009:1,2012-01-10T04:00:00Z,27.8398,-97.0727,12.9,1111122 
TCOON,ioos:station:TCOON:009:1,2012-01-10T05:00:00Z,27.8398,-97.0727,12.7,1111122 
TCOON,ioos:station:TCOON:009:1,2012-01-10T06:00:00Z,27.8398,-97.0727,12.7,1111122 
TCOON,ioos:station:TCOON:009:1,2012-01-10T07:00:00Z,27.8398,-97.0727,12.4,1111122 
TCOON,ioos:station:TCOON:009:1,2012-01-10T08:00:00Z,27.8398,-97.0727,11.4,1111122 
TCOON,ioos:station:TCOON:009:1,2012-01-10T09:00:00Z,27.8398,-97.0727,10.5,1111122 
TCOON,ioos:station:TCOON:009:1,2012-01-10T10:00:00Z,27.8398,-97.0727,9.5,1111122 
TCOON,ioos:station:TCOON:009:1,2012-01-10T11:00:00Z,27.8398,-97.0727,8.2,1111122 
TCOON,ioos:station:TCOON:009:1,2012-01-10T12:00:00Z,27.8398,-97.0727,7.4,1111122 
TCOON,ioos:station:TCOON:009:1,2012-01-10T13:00:00Z,27.8398,-97.0727,7.0,1111122 
TCOON,ioos:station:TCOON:009:1,2012-01-10T14:00:00Z,27.8398,-97.0727,7.6,1111122 
TCOON,ioos:station:TCOON:009:1,2012-01-10T15:00:00Z,27.8398,-97.0727,8.3,1111122 
TCOON,ioos:station:TCOON:009:1,2012-01-10T16:00:00Z,27.8398,-97.0727,9.3,1111122 
TCOON,ioos:station:TCOON:009:1,2012-01-10T17:00:00Z,27.8398,-97.0727,10.7,1111122 
TCOON,ioos:station:TCOON:009:1,2012-01-10T18:00:00Z,27.8398,-97.0727,11.8,1111122 
TCOON,ioos:station:TCOON:009:1,2012-01-10T19:00:00Z,27.8398,-97.0727,13.4,1111122 
TCOON,ioos:station:TCOON:009:1,2012-01-10T20:00:00Z,27.8398,-97.0727,14.7,1111122 
TCOON,ioos:station:TCOON:009:1,2012-01-10T21:00:00Z,27.8398,-97.0727,15.5,1111122 
TCOON,ioos:station:TCOON:009:1,2012-01-10T22:00:00Z,27.8398,-97.0727,16.4,1111122 
TCOON,ioos:station:TCOON:009:1,2012-01-10T23:00:00Z,27.8398,-97.0727,16.9,1111122 
TCOON,ioos:station:TCOON:009:1,2012-01-11T00:00:00Z,27.8398,-97.0727,16.2,1111122 
TCOON,ioos:station:TCOON:009:1,2012-01-11T01:00:00Z,27.8398,-97.0727,15.4,1111122 
TCOON,ioos:station:TCOON:009:1,2012-01-11T02:00:00Z,27.8398,-97.0727,13.4,1111122 
TCOON,ioos:station:TCOON:009:1,2012-01-11T03:00:00Z,27.8398,-97.0727,14.0,1111122 
TCOON,ioos:station:TCOON:009:1,2012-01-11T04:00:00Z,27.8398,-97.0727,14.7,1111122 
TCOON,ioos:station:TCOON:009:1,2012-01-11T05:00:00Z,27.8398,-97.0727,14.1,1111122 
TCOON,ioos:station:TCOON:009:1,2012-01-11T06:00:00Z,27.8398,-97.0727,13.2,1111122 
TCOON,ioos:station:TCOON:009:1,2012-01-11T07:00:00Z,27.8398,-97.0727,12.9,1111122 
TCOON,ioos:station:TCOON:009:1,2012-01-11T08:00:00Z,27.8398,-97.0727,12.4,1111122 
TCOON,ioos:station:TCOON:009:1,2012-01-11T09:00:00Z,27.8398,-97.0727,12.4,1111122 
TCOON,ioos:station:TCOON:009:1,2012-01-11T10:00:00Z,27.8398,-97.0727,12.4,1111122 
TCOON,ioos:station:TCOON:009:1,2012-01-11T11:00:00Z,27.8398,-97.0727,12.1,1111122 
TCOON,ioos:station:TCOON:009:1,2012-01-11T12:00:00Z,27.8398,-97.0727,11.6,1111122 
TCOON,ioos:station:TCOON:009:1,2012-01-11T13:00:00Z,27.8398,-97.0727,11.9,1111122 
TCOON,ioos:station:TCOON:009:1,2012-01-11T14:00:00Z,27.8398,-97.0727,12.2,1111122 
TCOON,ioos:station:TCOON:009:1,2012-01-11T15:00:00Z,27.8398,-97.0727,14.0,1111122 
TCOON,ioos:station:TCOON:009:1,2012-01-11T16:00:00Z,27.8398,-97.0727,14.6,1111122 
TCOON,ioos:station:TCOON:009:1,2012-01-11T17:00:00Z,27.8398,-97.0727,17.3,1111122 
TCOON,ioos:station:TCOON:009:1,2012-01-11T18:00:00Z,27.8398,-97.0727,19.1,1111122 
TCOON,ioos:station:TCOON:009:1,2012-01-11T19:00:00Z,27.8398,-97.0727,20.2,1111122 
TCOON,ioos:station:TCOON:009:1,2012-01-11T20:00:00Z,27.8398,-97.0727,19.0,1111122 
TCOON,ioos:station:TCOON:009:1,2012-01-11T21:00:00Z,27.8398,-97.0727,19.4,1111122 
TCOON,ioos:station:TCOON:009:1,2012-01-11T22:00:00Z,27.8398,-97.0727,19.7,1111122 
TCOON,ioos:station:TCOON:009:1,2012-01-11T23:00:00Z,27.8398,-97.0727,18.7,1111122 
TCOON,ioos:station:TCOON:009:1,2012-01-12T00:00:00Z,27.8398,-97.0727,17.6,1111122 
TCOON,ioos:station:TCOON:009:1,2012-01-12T01:00:00Z,27.8398,-97.0727,17.6,1111122 
TCOON,ioos:station:TCOON:009:1,2012-01-12T02:00:00Z,27.8398,-97.0727,17.5,1111122 
TCOON,ioos:station:TCOON:009:1,2012-01-12T03:00:00Z,27.8398,-97.0727,17.5,1111122 
TCOON,ioos:station:TCOON:009:1,2012-01-12T04:00:00Z,27.8398,-97.0727,17.3,1111122 
TCOON,ioos:station:TCOON:009:1,2012-01-12T05:00:00Z,27.8398,-97.0727,17.2,1111122 
TCOON,ioos:station:TCOON:009:1,2012-01-12T06:00:00Z,27.8398,-97.0727,16.8,1111122 
TCOON,ioos:station:TCOON:009:1,2012-01-12T07:00:00Z,27.8398,-97.0727,17.5,1111122 
TCOON,ioos:station:TCOON:009:1,2012-01-12T08:00:00Z,27.8398,-97.0727,15.7,1111122 
TCOON,ioos:station:TCOON:009:1,2012-01-12T09:00:00Z,27.8398,-97.0727,14.8,1111122 
TCOON,ioos:station:TCOON:009:1,2012-01-12T10:00:00Z,27.8398,-97.0727,12.7,1111122 
TCOON,ioos:station:TCOON:009:1,2012-01-12T11:00:00Z,27.8398,-97.0727,10.7,1111122 
TCOON,ioos:station:TCOON:009:1,2012-01-12T12:00:00Z,27.8398,-97.0727,9.9,1111122 
TCOON,ioos:station:TCOON:009:1,2012-01-12T13:00:00Z,27.8398,-97.0727,9.2,1111122 
TCOON,ioos:station:TCOON:009:1,2012-01-12T14:00:00Z,27.8398,-97.0727,8.5,1111122 
TCOON,ioos:station:TCOON:009:1,2012-01-12T15:00:00Z,27.8398,-97.0727,7.1,1111122 
TCOON,ioos:station:TCOON:009:1,2012-01-12T16:00:00Z,27.8398,-97.0727,7.5,1111122 
TCOON,ioos:station:TCOON:009:1,2012-01-12T17:00:00Z,27.8398,-97.0727,8.8,1111122 
TCOON,ioos:station:TCOON:009:1,2012-01-12T18:00:00Z,27.8398,-97.0727,9.1,1111122 
TCOON,ioos:station:TCOON:009:1,2012-01-12T19:00:00Z,27.8398,-97.0727,10.8,1111122 
TCOON,ioos:station:TCOON:009:1,2012-01-12T20:00:00Z,27.8398,-97.0727,11.0,1111122 
TCOON,ioos:station:TCOON:009:1,2012-01-12T21:00:00Z,27.8398,-97.0727,10.2,1111122 
TCOON,ioos:station:TCOON:009:1,2012-01-12T22:00:00Z,27.8398,-97.0727,10.8,1111122 
TCOON,ioos:station:TCOON:009:1,2012-01-12T23:00:00Z,27.8398,-97.0727,11.0,1111122 
TCOON,ioos:station:TCOON:009:1,2012-01-13T00:00:00Z,27.8398,-97.0727,10.1,1111122 
TCOON,ioos:station:TCOON:009:1,2012-01-13T01:00:00Z,27.8398,-97.0727,9.2,1111122 
TCOON,ioos:station:TCOON:009:1,2012-01-13T02:00:00Z,27.8398,-97.0727,8.9,1111122 
TCOON,ioos:station:TCOON:009:1,2012-01-13T03:00:00Z,27.8398,-97.0727,8.7,1111122 
TCOON,ioos:station:TCOON:009:1,2012-01-13T04:00:00Z,27.8398,-97.0727,8.0,1111122 
TCOON,ioos:station:TCOON:009:1,2012-01-13T05:00:00Z,27.8398,-97.0727,7.7,1111122 
TCOON,ioos:station:TCOON:009:1,2012-01-13T06:00:00Z,27.8398,-97.0727,7.5,1111122 
TCOON,ioos:station:TCOON:009:1,2012-01-13T07:00:00Z,27.8398,-97.0727,7.2,1111122 
TCOON,ioos:station:TCOON:009:1,2012-01-13T08:00:00Z,27.8398,-97.0727,7.0,1111122 
TCOON,ioos:station:TCOON:009:1,2012-01-13T09:00:00Z,27.8398,-97.0727,7.8,1111122 
TCOON,ioos:station:TCOON:009:1,2012-01-13T10:00:00Z,27.8398,-97.0727,7.3,1111122 
TCOON,ioos:station:TCOON:009:1,2012-01-13T11:00:00Z,27.8398,-97.0727,7.2,1111122 
TCOON,ioos:station:TCOON:009:1,2012-01-13T12:00:00Z,27.8398,-97.0727,6.9,1111122 
TCOON,ioos:station:TCOON:009:1,2012-01-13T13:00:00Z,27.8398,-97.0727,6.7,11111222 
TCOON,ioos:station:TCOON:009:1,2012-01-13T14:00:00Z,27.8398,-97.0727,7.0,11111222 
TCOON,ioos:station:TCOON:009:1,2012-01-13T15:00:00Z,27.8398,-97.0727,8.4,1111122 
TCOON,ioos:station:TCOON:009:1,2012-01-13T16:00:00Z,27.8398,-97.0727,9.3,1111122 
TCOON,ioos:station:TCOON:009:1,2012-01-13T17:00:00Z,27.8398,-97.0727,9.9,11111222 
TCOON,ioos:station:TCOON:009:1,2012-01-13T18:00:00Z,27.8398,-97.0727,10.4,1111122 
TCOON,ioos:station:TCOON:009:1,2012-01-13T19:00:00Z,27.8398,-97.0727,10.2,1111122 
TCOON,ioos:station:TCOON:009:1,2012-01-13T20:00:00Z,27.8398,-97.0727,10.7,1111122 
TCOON,ioos:station:TCOON:009:1,2012-01-13T21:00:00Z,27.8398,-97.0727,10.9,1111122 
TCOON,ioos:station:TCOON:009:1,2012-01-13T22:00:00Z,27.8398,-97.0727,10.9,1111122 
TCOON,ioos:station:TCOON:009:1,2012-01-13T23:00:00Z,27.8398,-97.0727,11.2,1111122 
TCOON,ioos:station:TCOON:009:1,2012-01-14T00:00:00Z,27.8398,-97.0727,11.1,1111122 
TCOON,ioos:station:TCOON:009:1,2012-01-14T01:00:00Z,27.8398,-97.0727,11.0,1111122 
TCOON,ioos:station:TCOON:009:1,2012-01-14T02:00:00Z,27.8398,-97.0727,11.2,1111122 
TCOON,ioos:station:TCOON:009:1,2012-01-14T03:00:00Z,27.8398,-97.0727,10.9,1111122 
TCOON,ioos:station:TCOON:009:1,2012-01-14T04:00:00Z,27.8398,-97.0727,11.4,11111222 
TCOON,ioos:station:TCOON:009:1,2012-01-14T05:00:00Z,27.8398,-97.0727,11.7,1111122 
TCOON,ioos:station:TCOON:009:1,2012-01-14T06:00:00Z,27.8398,-97.0727,11.5,1111122 
TCOON,ioos:station:TCOON:009:1,2012-01-14T07:00:00Z,27.8398,-97.0727,11.3,1111122 
TCOON,ioos:station:TCOON:009:1,2012-01-14T08:00:00Z,27.8398,-97.0727,11.3,1111122 
TCOON,ioos:station:TCOON:009:1,2012-01-14T09:00:00Z,27.8398,-97.0727,11.4,1111122 
TCOON,ioos:station:TCOON:009:1,2012-01-14T10:00:00Z,27.8398,-97.0727,10.0,1111122 
TCOON,ioos:station:TCOON:009:1,2012-01-14T11:00:00Z,27.8398,-97.0727,9.1,1111122 
TCOON,ioos:station:TCOON:009:1,2012-01-14T12:00:00Z,27.8398,-97.0727,8.4,1111122 
TCOON,ioos:station:TCOON:009:1,2012-01-14T13:00:00Z,27.8398,-97.0727,8.2,1111122 
TCOON,ioos:station:TCOON:009:1,2012-01-14T14:00:00Z,27.8398,-97.0727,8.1,1111122 
TCOON,ioos:station:TCOON:009:1,2012-01-14T15:00:00Z,27.8398,-97.0727,10.4,1111122 
TCOON,ioos:station:TCOON:009:1,2012-01-14T16:00:00Z,27.8398,-97.0727,12.8,1111122 
TCOON,ioos:station:TCOON:009:1,2012-01-14T17:00:00Z,27.8398,-97.0727,14.2,1111122 
TCOON,ioos:station:TCOON:009:1,2012-01-14T18:00:00Z,27.8398,-97.0727,14.8,1111122 